Regional Weather Roundup
Issued by NWS Upton, NY

Current Version | Previous Version | Graphics & Text | Print | Product List | Glossary Off
Versions: 1 2 3 4 5 6 7 8 9 10 11 12 13 14 15 16 17 18 19 20 21 22 23 24 25 26 27

000
ASUS41 KOKX 241604
RWROKX

REGIONAL WEATHER ROUNDUP
NATIONAL WEATHER SERVICE NEW YORK NY
1200 PM EDT TUE MAY 24 2016

NOTE: "FAIR" INDICATES FEW OR NO CLOUDS BELOW 12,000 FEET WITH NO
SIGNIFICANT WEATHER AND/OR OBSTRUCTIONS TO VISIBILITY.

NYZ071-072-176-178-NJZ106-104-241700-
NEW YORK CITY METRO AREA


CITY           SKY/WX    TMP DP  RH WIND       PRES   REMARKS
CENTRAL PARK   CLOUDY    64  56  75 CALM      29.95S
LAGUARDIA APRT CLOUDY    67  59  75 VRB5      29.92R
KENNEDY INTL   PTSUNNY   68  56  65 N10       29.92S
NEWARK/LIBERTY CLOUDY    68  57  68 W3        29.93R
BRNX BOT. GARD   N/A     64  55  72 NW3       29.92F
TETERBORO      CLOUDY    67  56  67 W5        29.92R
$$

NYZ177-179-078>081-241700-
LONG ISLAND NEW YORK

CITY           SKY/WX    TMP DP  RH WIND       PRES   REMARKS
FARMINGDALE    CLOUDY    67  56  67 NW8       29.91S
ISLIP          CLOUDY    66  57  72 NW15      29.89F
SHIRLEY        CLOUDY    62  58  86 N8        29.90S
RIVERHEAD        N/A     59  57  94 CALM      29.89S
WESTHAMPTON    LGT RAIN  56  56 100 NW9       29.90S
EAST HAMPTON   CLOUDY    57  56  95 N3        29.89R FOG
MONTAUK POINT    N/A     55  54  96 CALM      29.90R
$$

NYZ052-065-067-241700-
HUDSON VALLEY

CITY           SKY/WX    TMP DP  RH WIND       PRES   REMARKS
WHITE PLAINS   CLOUDY    68  56  65 VRB3      29.91S
NEWBURGH       NOT AVBL
MONTGOMERY     CLOUDY    67  56  67 NE8       29.92S
POUGHKEEPSIE   PTSUNNY   66  58  75 NW9       29.91S
ALBANY         LGT RAIN  65  54  67 N8        29.93F
$$

NJZ001-105-106-008-010-013-015-019>022-104-241700-
NEW JERSEY

CITY           SKY/WX    TMP DP  RH WIND       PRES   REMARKS
NEWARK/LIBERTY CLOUDY    68  57  68 W3        29.93R
TETERBORO      CLOUDY    67  56  67 W5        29.92R
CALDWELL       CLOUDY    66  59  78 VRB3      29.93R
MORRISTOWN     PTSUNNY   68  61  77 MISG      29.93R
SOMERVILLE     CLOUDY    67  59  75 CALM      29.92S
SUSSEX         PTSUNNY   73  53  49 E5        29.92F
ANDOVER          N/A     69  55  60 W6        29.94R
TRENTON        PTSUNNY   68  55  63 SW8       29.94F
MILLVILLE      CLOUDY    73  52  47 N6        29.97S
ATLANTIC CITY  PTSUNNY   71  56  58 N3        29.96R
WRIGHTSTOWN    CLOUDY    67  58  72 W9G18     29.93R
TOMS RIVER     CLOUDY    68  54  60 W8        29.95S
BELMAR         CLOUDY    64  58  80 W6        29.95R
$$

PAZ047>061-062-071-241700-
EASTERN PENNSYLVANIA

CITY           SKY/WX    TMP DP  RH WIND       PRES   REMARKS
PHILADELPHIA   PTSUNNY   72  52  49 S8        29.96S
ALLENTOWN      CLOUDY    76  47  35 CALM      29.93F
SCRANTON       SUNNY     74  45  35 NW14G23   29.95F
$$

CTZ002-004>006-009-010-012-RIZ004-006-007-MAZ004-011-015-241700-
SOUTHERN NEW ENGLAND
 IN CT

CITY           SKY/WX    TMP DP  RH WIND       PRES   REMARKS
BRADLEY INTL   CLOUDY    62  55  77 N12       29.89S
HARTFORD       CLOUDY    63  56  78 N13       29.89S
DANBURY        MOSUNNY   68  55  63 N9G17     29.91F
WTRBRY/OXFORD  NOT AVBL
BRIDGEPORT     CLOUDY    66  56  70 N7        29.89F
MERIDEN        CLOUDY    64  55  72 N8        29.89S
NEW HAVEN      CLOUDY    62  57  83 N13G21    29.89S
CHESTER        CLOUDY    63  55  77 N9        29.89R
GROTON         LGT RAIN  59  58  96 E3        29.88R FOG
WILLIMANTIC    CLOUDY    63  54  72 N8        29.89R

 IN RI

CITY           SKY/WX    TMP DP  RH WIND       PRES   REMARKS
PROVIDENCE     DRIZZLE   58  54  86 NE13      29.89S FOG
BLOCK ISLAND   LGT RAIN  55  54  96 NE12G18   29.88R
WESTERLY       CLOUDY    60  53  77 VRB7      29.88R

 IN MA

CITY           SKY/WX    TMP DP  RH WIND       PRES   REMARKS
BOSTON         CLOUDY    54  52  93 NE13      29.94R FOG
WORCESTER      NOT AVBL
WESTFIELD      CLOUDY    61  55  81 N9        29.91R
PROVINCETOWN   CLOUDY    59  57  93 SE7       29.91S
NANTUCKET      CLOUDY    57  53  86 S13       29.90R
$$

ANZ330-335-338-340-345-350-353-355-241700-
COASTAL MARINE OBSERVATIONS


STATION/POSITION TIME  SKY/WX   TEMP    WIND        PRES    VSBY  WAVE
                                AIR SEA DIR/SP/G                  HT/PER
                 (UTC)          (F)     (DEG/KT/KT) (MB)    (MI)  (FT/S)
NY HARB ENTRANCE 1450            58 57  270/  4/  6 1012.8          3/ 9
20S FIRE ISLAND  1450            56 54  290/ 10/ 12 1012.4          4/ 9
GREAT SOUTH BAY  1530            61 63  300/  6/  8   N/A
23 SSW MONTAUK P 1550            54 54  280/  2/  4 1011.7          5/ 9
15 E BARNEGAT LI 1522               54                N/A           3/11
HUDSON CANYON    1450            54 53              1012.8          4/10
KINGS POINT      1500            62 57              1012.7
EXECUTION ROCKS  NOT AVBL
CENTRAL LI SOUND NOT AVBL
EASTERN LI SOUND 1515            56 53   70/  4/  6   N/A
ROBBINS REEF     1500            62     350/  5/  6 1012.4
$$


>>>>>>>>>>>>>>>>>>>>>>>>>>>> KEY <<<<<<<<<<<<<<<<<<<<<<<<<<<
>                                                          <
>     SKY/WX - SKY CONDITION/PRESENT WEATHER               <
>     TMP    - TEMPERATURE IN FAHRENHEIT                   <
>     DP     - DEWPOINT IN FAHRENHEIT                      <
>     RH     - RELATIVE HUMIDITY IN PERCENT                <
>     WIND   - DIRECTION AND SPEED IN MPH                  <
>     PRES   - MEAN SEA LEVEL PRESSURE IN INCHES OF HG     <
>     WCI    - WIND CHILL INDEX                            <
>     VSB    - VISIBILITY IN MILES                         <
>     HX     - HEAT INDEX                                  <
>     TC     - TEMPERATURE IN CELSIUS                      <
>     VRB    - VARIABLE WIND DIRECTION                     <
>                                                          <
>>>>>>>>>>>>>>>>>>>>>>>>>>>> KEY <<<<<<<<<<<<<<<<<<<<<<<<<<<






USA.gov is the U.S. government's official web portal to all federal, state and local government web resources and services.